Weather Roundup
Issued by NWS

Home | Current Version | Previous Version | Text Only | Print | Product List | Glossary On
Versions: 1 2 3 4 5 6 7 8 9 10 11 12 13 14 15 16 17 18 19 20 21 22 23 24 25 26 27 28 29 30 31 32 33 34 35 36 37 38 39 40 41 42 43 44 45 46 47 48 49 50
082
NZUS93 KARX 240410
HRRWXR

CURRENT HOURLY OBSERVATIONS ACROSS
MUCH OF THE UPPER MISSISSIPPI VALLEY
NATIONAL WEATHER SERVICE LA CROSSE WI
1000 PM CST THU NOV 23 2017


...SOUTHEAST MINNESOTA...


CITY           SKY/WX    TMP DP  RH WIND       PRES   REMARKS
ROCHESTER      CLEAR     38  30  73 S17       29.71F WCI  28
ROCHESTER/MAYO FAIR      42  30  62 S13G21    29.71F
WINONA         CLEAR     41  28  60 S3        29.73F
AUSTIN         CLEAR     37  28  70 S10       29.72F WCI  30
ALBERT LEA     CLOUDY    45  28  53 S12G17    29.70F
DODGE CENTER   PTCLDY    41  28  60 S21       29.69F
PRESTON        CLEAR     38  28  67 S16       29.74F WCI  29
OWATONNA       CLEAR     41  30  65 S17       29.67F
FARIBAULT      CLEAR     39  30  70 S9        29.66F WCI  33
$$

...ELSEWHERE IN MINNESOTA...


CITY           SKY/WX    TMP DP  RH WIND       PRES   REMARKS
MINNEAPOLIS    CLOUDY    46  32  58 S9        29.63F
INTNL FALLS    PTCLDY    35  26  69 VRB6      29.34F WCI  30
DULUTH         CLOUDY    35  26  69 SW15G24   29.50F WCI  25
RED WING       CLEAR     43  27  52 S6        29.67F
REDWOOD FALLS  CLOUDY    46  34  62 S12       29.58F
MANKATO        CLEAR     42  31  64 S14       29.65F
WORTHINGTON    CLOUDY    49  37  63 S16       29.64F
FAIRMONT       PTCLDY    45  34  65 S13       29.67F
$$

...SOUTHWEST WISCONSIN...


CITY           SKY/WX    TMP DP  RH WIND       PRES   REMARKS
LA CROSSE      CLEAR     40  26  57 S12       29.76F WCI  33
PRAIRIE DU CHI CLEAR     31  24  74 CALM      29.82F
BOSCOBEL       CLEAR     27  22  81 CALM      29.83F
LONE ROCK      NOT AVBL
PLATTEVILLE    CLEAR     36  28  74 S8        29.84F WCI  29
FORT MC COY    CLOUDY    38  27  65 S3        29.77F
CAMP DOUGLAS   PTCLDY    35  24  64 S6        29.76F WCI  30
MAUSTON-NEW LI CLEAR     36  26  65 SE3       29.77F
VIROQUA        FAIR      37  28  69 S8        29.77F WCI  31
WIS DELLS      CLEAR     34  24  66 CALM      29.80F
$$

...ELSEWHERE IN WISCONSIN...


CITY           SKY/WX    TMP DP  RH WIND       PRES   REMARKS
MILWAUKEE      CLEAR     35  25  66 S5        29.87F WCI  31
MADISON        CLEAR     34  25  69 S5        29.83F WCI  30
GREEN BAY      MOCLDY    33  25  72 S7        29.78F WCI  27
EAU CLAIRE     CLEAR     33  22  63 S6        29.68F WCI  28
BLACK RVR FLS  MOCLDY    36  23  58 S3        29.73F
MEDFORD        CLOUDY    35  24  63 S9        29.68F WCI  28
WAUSAU         CLOUDY    35  23  61 SE10      29.71F WCI  27
WIS RAPIDS     CLOUDY    36  23  59 S7        29.76F WCI  30
MARSHFIELD     CLOUDY    38  22  52 SW14      29.71F WCI  30
RICE LAKE      CLEAR     37  26  63 S9        29.67F WCI  31
$$

...NORTHEAST IOWA...


CITY           SKY/WX    TMP DP  RH WIND       PRES   REMARKS
WATERLOO       CLEAR     38  29  70 S7        29.81F WCI  33
DUBUQUE        CLEAR     33  27  78 S10       29.84F WCI  25
DECORAH        CLEAR     39  28  65 S8        29.77F WCI  34
MASON CITY     CLOUDY    38  30  73 S12       29.75F WCI  30
CHARLES CITY   CLOUDY    39  30  70 S12       29.77F WCI  32
OELWEIN        CLOUDY    36  30  80 S10       29.81F WCI  28
$$

...ELSEWHERE IN IOWA...


CITY           SKY/WX    TMP DP  RH WIND       PRES   REMARKS
DES MOINES     CLOUDY    46  34  62 S10       29.81F
IOWA CITY      CLOUDY    31  26  82 CALM      29.88F
FORT DODGE     CLOUDY    48  35  60 S12       29.75F
MARSHALLTOWN   PTCLDY    41  31  67 S9        29.81F
CEDAR RAPIDS   CLOUDY    35  28  75 S7        29.84F WCI  29
$$

...NORTHERN ILLINOIS...


CITY           SKY/WX    TMP DP  RH WIND       PRES   REMARKS
CHICAGO-OHARE  CLEAR     34  26  72 S5        29.90S WCI  30
CHICAGO-MIDWAY CLEAR     37  27  67 S6        29.92S WCI  32
MOLINE         CLEAR     30  25  81 CALM      29.90S
ROCKFORD       CLEAR     32  24  72 S3        29.91S
PEORIA         CLEAR     32  26  78 CALM      29.93F
$$

NOTE: "FAIR" INDICATES FEW OR NO CLOUDS BELOW 12,000 FEET WITH NO
SIGNIFICANT WEATHER AND/OR OBSTRUCTIONS TO VISIBILITY. WIND
SPEEDS ARE IN MILES-PER-HOUR.




USA.gov is the U.S. government's official web portal to all federal, state and local government web resources and services.